GFSSW_con_3kmhel_192.txt.gz
Helicity
31 40 43 48 51 53 58 31 11 14 19 6 -5 7 23 38 48 55 61 45 54 43 55 63 69 85 121 148 154 157 156 140 140 127 126 167 195 216 238 264 209 163 104 139 239
20 29 40 47 50 54 50 51 47 14 6 14 4 16 39 52 40 18 32 40 39 49 63 67 75 115 140 159 171 165 130 87 114 125 128 190 190 195 220 262 262 208 232 309 291
32 28 32 37 45 51 53 52 49 43 21 8 20 35 57 51 46 27 43 32 21 43 73 94 110 101 139 161 163 140 97 117 134 146 176 163 172 173 180 174 129 162 216 269 277
28 32 38 34 33 42 55 55 61 41 32 18 19 53 65 48 67 18 -9 -2 16 56 77 99 118 117 123 134 124 119 63 119 113 144 141 150 152 145 146 116 99 134 153 238 240
22 23 19 28 39 45 42 55 60 58 36 17 23 64 74 56 35 28 0 7 27 39 63 103 120 122 130 100 127 81 77 110 99 84 80 103 99 112 143 141 131 169 221 199 236
20 7 12 19 31 39 50 52 54 57 39 26 30 71 66 69 37 34 13 34 37 62 85 115 140 115 127 116 108 80 105 84 72 58 67 75 90 142 105 170 201 235 190 212 222
51 43 20 11 30 42 51 64 67 62 32 17 48 66 66 35 48 33 29 43 65 82 94 110 119 135 123 112 103 101 95 97 70 90 85 78 79 87 141 155 193 184 193 242 237
60 61 55 35 15 43 68 77 70 65 20 14 48 75 75 45 55 81 53 59 69 86 89 100 137 155 128 121 126 111 110 75 71 156 96 137 59 80 112 202 220 171 203 239 258
123 70 67 70 65 50 83 104 97 53 27 36 66 69 67 89 95 64 86 73 96 100 115 129 169 173 162 164 153 135 67 69 84 68 106 95 66 79 97 158 158 149 174 196 203
154 131 89 68 68 69 76 90 71 71 50 52 104 83 84 69 64 69 65 85 110 135 194 199 228 207 188 181 90 86 91 69 69 52 85 89 27 58 104 121 140 112 138 179 197
140 153 146 89 66 73 91 90 110 124 140 92 47 69 85 55 93 109 104 124 148 177 196 211 228 150 99 129 108 104 94 89 75 58 103 88 70 19 26 98 125 115 125 132 145
101 130 147 157 70 94 105 123 104 108 118 70 90 98 99 77 110 85 131 155 164 140 220 245 100 82 124 120 98 126 114 95 106 91 56 57 34 64 69 111 147 147 117 122 147
43 97 98 130 119 142 117 109 104 113 131 73 132 156 157 115 118 80 107 112 127 155 136 157 125 129 130 135 111 116 119 108 102 87 70 81 41 64 71 93 147 128 149 165 192
42 36 69 122 141 149 158 67 66 117 142 101 76 104 204 219 135 134 130 178 123 104 129 127 151 152 182 180 178 154 113 120 129 123 98 99 90 62 90 122 128 129 137 146 150
52 44 34 57 184 167 121 100 85 109 122 62 114 134 136 302 202 174 193 195 129 132 196 148 135 176 193 157 156 141 145 158 152 154 130 117 121 55 120 102 90 100 132 126 220
33 38 50 73 107 93 128 179 156 170 166 118 103 145 167 254 319 248 233 250 149 156 178 133 149 167 170 215 178 131 252 259 194 154 132 92 131 62 86 71 46 77 101 183 266
58 24 59 95 126 112 180 255 192 241 195 109 99 137 116 168 265 248 196 179 240 280 229 243 207 189 181 315 331 241 259 242 191 192 127 113 107 48 56 45 57 128 159 187 242
50 53 44 86 57 101 198 266 183 180 185 188 100 97 119 140 166 209 233 163 171 267 314 317 227 196 167 192 160 203 199 205 125 136 147 147 65 40 52 36 49 124 134 101 83
49 76 71 72 56 87 223 189 189 212 177 185 178 95 83 92 121 184 168 135 160 192 201 275 228 250 242 212 190 214 203 182 187 195 164 107 82 33 54 81 131 136 133 88 76
80 86 81 56 88 89 158 236 178 156 230 212 126 65 82 69 127 82 108 70 123 106 219 141 237 245 259 227 239 179 189 249 263 162 118 110 98 54 40 62 97 140 108 74 61
50 120 30 52 128 137 108 128 97 201 220 139 87 37 101 85 108 146 33 80 95 108 159 185 215 291 235 180 176 271 247 281 238 217 136 116 75 46 40 70 89 70 56 72 79
57 89 53 91 121 156 25 68 142 49 112 69 54 4 37 49 47 154 144 47 51 131 166 190 168 210 187 156 151 154 136 189 216 198 200 139 97 93 74 77 95 56 47 64 81
102 100 64 86 105 90 128 122 155 367 109 82 72 70 98 42 102 94 132 77 43 143 183 143 144 222 234 174 188 152 139 187 184 182 150 156 98 85 126 84 53 79 40 56 73
9 34 91 53 189 69 0 11 76 106 79 69 65 123 89 32 107 112 165 115 119 161 154 181 109 98 111 77 168 169 175 188 189 178 139 141 111 56 59 82 51 25 54 73 86
36 15 36 59 105 96 93 41 61 90 75 93 52 59 55 68 52 124 193 162 169 99 181 128 100 116 131 96 124 124 166 218 172 172 149 98 122 71 46 82 87 67 120 145 139
18 10 75 59 75 42 30 129 72 63 44 67 85 81 79 63 34 131 224 202 158 146 147 196 115 152 151 115 138 138 130 130 145 160 95 101 93 84 91 201 179 112 134 145 174
-2 22 72 57 37 60 39 11 36 35 19 -1 32 21 47 115 58 84 132 111 130 127 205 170 130 139 139 113 105 117 85 101 104 119 127 151 97 126 169 213 178 152 168 176 167

GFSSW_con_3kmhel_195.txt.gz
Helicity
20 21 26 30 33 33 34 35 49 39 33 46 38 18 33 59 79 71 46 42 50 60 85 115 128 135 135 140 136 138 179 132 136 126 136 151 194 229 213 180 196 171 105 109 278
17 25 26 32 34 35 37 35 34 42 31 30 35 35 37 57 32 27 21 16 22 65 103 99 128 150 158 145 152 171 122 85 110 116 119 155 179 191 203 197 168 194 212 339 290
23 32 34 33 34 32 38 44 45 42 36 32 30 42 49 47 38 36 8 3 25 54 94 109 160 156 151 170 171 145 79 89 87 101 106 129 192 195 191 151 113 135 225 286 228
25 23 33 41 39 38 42 44 49 53 44 29 37 54 52 48 57 30 34 20 21 61 97 122 152 177 180 163 180 125 83 90 113 115 128 129 150 152 130 115 97 119 193 262 195
40 36 28 28 35 37 43 51 51 59 54 40 35 56 76 77 51 37 33 28 42 48 58 103 131 157 159 146 159 112 106 109 81 98 105 102 104 117 104 118 133 217 258 206 180
58 47 39 39 38 46 46 47 55 61 67 48 40 66 73 59 40 44 66 76 43 49 61 80 89 103 111 119 138 82 95 86 93 82 67 74 81 107 82 169 177 212 223 206 186
131 98 62 62 46 35 40 48 55 63 75 58 55 66 64 47 68 42 56 51 78 72 67 71 92 125 136 141 127 107 120 115 93 88 79 80 44 76 121 133 150 179 237 251 220
157 143 133 77 70 64 49 56 75 78 80 66 71 84 49 47 60 100 81 72 80 95 82 69 94 122 129 141 184 151 144 90 79 115 97 139 20 62 84 187 151 165 234 272 225
147 153 161 151 96 78 75 57 76 93 70 76 97 85 37 85 91 65 100 80 96 125 127 95 124 146 176 171 179 185 110 111 115 84 134 150 65 113 94 148 159 160 177 188 216
97 112 132 147 149 84 70 75 85 70 98 98 126 109 86 61 52 74 98 109 133 163 201 160 184 165 179 196 142 152 145 100 86 71 125 108 12 74 85 118 140 151 182 191 196
72 57 110 110 136 171 90 111 175 184 229 179 109 126 126 78 66 73 120 136 165 207 192 203 195 132 88 156 135 122 146 116 107 87 119 76 63 38 60 73 117 126 167 176 171
100 84 64 78 99 145 115 205 167 161 177 124 79 104 145 90 107 85 150 162 171 180 242 265 126 72 101 135 127 108 137 128 144 115 95 95 40 42 38 81 95 113 142 150 181
95 84 41 37 72 101 153 149 107 93 156 100 144 155 156 169 136 86 142 178 181 174 195 209 120 67 146 162 141 156 139 142 125 132 120 100 24 78 72 103 107 99 121 149 193
53 18 20 67 111 125 128 77 106 106 208 175 93 77 180 241 199 181 180 234 166 139 156 131 101 97 214 153 194 122 83 134 130 142 113 140 83 108 101 96 83 160 171 158 199
41 38 31 34 159 130 106 109 112 170 196 80 160 173 114 241 255 240 239 283 158 151 195 166 122 152 203 170 171 147 162 192 182 164 147 138 141 55 129 82 74 119 160 131 189
51 44 67 76 85 58 46 131 247 256 209 162 136 170 225 187 265 305 262 273 176 148 137 134 121 133 144 221 197 135 291 292 218 166 145 113 170 58 93 73 126 136 104 103 150
43 31 50 89 72 69 97 112 249 241 227 209 180 158 188 191 230 209 244 266 282 289 203 160 162 176 171 298 303 256 296 278 228 224 141 144 181 81 75 76 100 97 79 102 166
17 37 64 91 125 77 114 79 333 205 229 189 146 174 154 189 165 212 220 189 247 279 240 232 216 199 180 202 264 262 246 242 155 171 187 198 121 100 90 71 67 88 111 119 182
20 42 21 51 139 80 73 48 194 178 203 227 247 163 128 138 146 219 160 161 196 230 210 228 211 244 245 233 210 243 248 226 227 242 209 168 158 116 86 98 112 136 131 94 109
58 52 -1 57 140 114 73 107 213 124 175 194 121 116 78 116 125 83 168 107 155 150 257 147 176 213 258 283 286 191 228 274 285 195 177 177 137 104 83 83 101 130 99 73 56
57 46 3 81 160 106 124 154 135 156 150 135 162 189 117 118 98 168 110 89 82 142 174 193 164 216 242 215 259 351 292 301 242 224 153 131 118 78 82 60 76 51 49 42 11
60 44 31 86 92 52 143 115 86 73 135 145 110 134 73 34 57 92 88 93 74 113 195 232 122 116 228 264 251 236 184 237 210 230 248 180 161 103 82 37 82 41 20 23 38
53 39 13 95 65 88 137 69 75 73 85 59 70 56 38 5 -10 4 58 67 14 126 114 286 205 179 190 185 223 191 211 248 218 214 179 187 150 141 135 80 47 68 36 39 47
61 9 62 107 46 111 144 103 16 49 125 92 79 105 92 48 14 1 40 41 61 79 73 216 252 154 132 84 184 206 208 210 212 197 194 180 134 89 82 66 56 27 43 63 65
29 28 22 2 -4 30 83 19 29 54 15 131 133 61 66 41 47 57 66 109 156 97 178 176 164 171 123 63 93 107 196 260 207 178 151 85 97 44 12 28 34 61 83 98 81
38 37 11 7 28 16 84 82 42 -48 -10 28 51 21 44 16 37 -32 174 123 184 169 191 206 183 134 103 58 80 85 91 154 171 200 147 89 99 78 112 154 145 109 113 114 108
26 16 1 14 -21 -7 43 -21 41 86 25 21 8 11 12 26 72 -1 31 208 150 175 133 178 168 170 117 114 84 122 110 116 124 117 147 125 64 101 136 141 136 157 151 145 156

GFSSW_con_3kmhel_198.txt.gz
Helicity
10 10 20 25 32 33 35 45 50 42 32 20 10 15 17 28 45 58 50 42 100 93 103 118 126 132 160 179 195 193 206 118 106 108 119 134 169 187 170 160 181 159 95 57 200
12 12 20 29 28 32 40 43 47 49 50 29 25 10 24 31 31 53 39 31 69 93 127 114 121 148 181 166 184 211 154 76 98 110 108 125 143 149 158 174 173 192 193 211 231
9 16 25 31 39 40 36 41 51 55 53 46 28 20 28 39 30 26 28 27 63 101 124 126 140 155 164 191 182 169 101 100 91 90 87 105 143 154 162 139 128 120 145 196 205
45 22 28 32 34 46 56 45 43 58 63 62 37 27 48 40 54 39 20 24 69 105 133 144 169 173 152 167 176 134 93 108 112 99 99 100 120 125 120 134 120 111 124 213 169
106 89 66 47 48 48 56 56 55 60 69 74 53 42 55 58 41 46 33 42 85 94 108 144 163 163 150 124 144 121 104 100 96 111 107 105 103 105 86 122 130 162 193 175 171
106 120 128 114 72 57 66 45 45 64 82 89 71 70 66 77 36 44 78 96 67 72 84 129 131 121 123 102 133 75 116 89 90 104 99 80 92 93 86 149 163 175 140 144 160
96 119 138 157 152 86 67 78 60 62 64 88 84 85 81 60 69 66 74 60 70 72 87 102 120 146 132 122 95 94 96 114 80 89 80 87 35 44 85 114 132 137 152 179 172
69 82 109 125 164 166 102 79 80 83 84 77 73 125 81 57 63 92 95 84 83 74 77 91 127 142 136 136 149 148 117 78 73 137 103 127 5 66 83 167 167 188 197 201 184
45 81 82 94 96 124 164 102 78 82 73 68 88 125 72 109 102 84 125 115 106 114 114 133 166 173 181 163 171 178 87 83 103 75 133 127 32 64 126 112 123 173 203 192 200
141 107 71 83 81 98 118 129 78 95 71 67 104 168 116 94 65 87 118 142 156 151 173 183 217 192 222 229 154 117 106 73 99 82 142 118 44 57 85 89 72 128 181 204 184
113 110 138 93 74 71 124 95 198 200 234 241 195 219 162 117 118 112 137 183 185 208 181 203 215 188 160 204 168 140 123 96 80 94 126 100 68 31 61 80 71 83 148 166 128
70 63 58 82 61 58 116 201 238 222 161 93 126 168 119 111 137 104 129 146 153 173 210 239 164 120 153 151 141 74 88 102 101 116 98 91 40 11 51 68 101 108 117 129 139
51 37 32 17 48 98 127 109 114 117 164 173 161 169 113 122 134 86 120 185 161 172 187 202 119 101 146 163 136 134 82 81 93 93 100 88 6 50 72 93 112 134 127 137 189
46 47 51 45 81 124 138 61 121 151 163 148 153 130 179 161 156 125 158 241 171 119 144 114 115 97 119 143 174 117 102 95 86 87 84 118 45 87 105 115 124 145 171 167 186
50 45 52 77 93 152 153 61 138 163 221 118 101 142 131 289 233 188 220 278 189 180 157 102 82 190 157 134 165 122 119 127 118 119 92 112 111 33 127 91 58 107 156 195 212
31 22 38 98 103 45 107 18 100 224 262 131 102 136 230 199 270 256 241 272 193 197 206 152 120 107 104 192 164 91 232 265 184 126 96 90 143 43 101 78 110 115 134 235 263
16 10 47 94 71 25 124 98 160 315 216 208 139 111 196 216 269 242 185 237 286 289 272 240 190 132 148 302 313 245 271 271 213 201 137 104 173 75 89 77 91 82 116 205 236
17 35 53 79 38 53 127 68 82 123 256 215 232 180 108 154 149 202 178 171 218 266 243 266 256 196 177 198 253 295 229 247 181 159 152 181 114 122 105 146 91 116 129 151 156
36 59 54 53 44 29 104 51 58 159 53 133 277 195 147 149 119 183 161 159 177 237 245 204 234 204 313 274 196 257 225 197 174 189 170 144 179 130 102 132 114 113 129 118 134
62 53 40 87 68 50 101 67 -20 158 138 182 164 135 101 131 180 149 143 102 157 156 237 160 176 211 258 326 341 201 226 239 255 156 165 139 139 119 113 93 94 91 79 101 123
76 55 14 68 64 79 67 30 -3 47 79 65 76 151 116 129 145 123 56 104 64 122 214 217 175 201 254 258 281 373 264 272 178 176 143 107 91 94 111 67 55 47 64 88 92
81 51 24 58 46 93 110 51 19 26 18 139 93 136 136 141 174 123 81 112 187 85 158 279 197 181 235 273 315 252 188 246 206 229 263 170 135 89 151 91 85 55 61 66 64
80 47 61 74 34 94 97 33 23 36 56 50 55 52 111 119 94 79 30 -31 62 183 108 260 288 305 276 201 233 208 226 263 200 160 135 158 135 108 96 94 58 64 51 65 72
75 38 -29 -2 37 63 52 21 45 18 72 70 1 29 25 54 67 0 -9 -42 50 53 28 103 236 220 240 159 189 229 251 227 214 136 125 137 141 100 87 82 68 35 44 63 71
59 34 10 10 34 44 40 26 57 55 18 44 32 17 19 51 22 18 -22 0 108 82 32 98 147 190 167 100 146 139 267 272 222 235 139 97 92 83 48 26 36 59 84 96 80
58 14 -26 12 -4 -8 -10 4 43 60 11 -6 22 75 54 8 19 -33 -21 8 48 121 87 169 163 222 229 186 127 111 128 175 199 257 215 112 100 104 108 131 117 86 101 68 72
25 23 9 6 -17 20 -5 56 16 39 -1 -13 -12 -73 64 46 24 9 -13 -21 40 104 166 147 129 199 188 182 140 126 95 156 156 183 158 148 61 99 121 109 87 92 94 64 85

GFSSW_con_3kmhel_204.txt.gz
Helicity
70 87 85 54 30 21 21 28 24 26 35 33 39 32 19 13 32 12 15 22 42 95 106 124 122 125 133 131 154 170 143 90 75 73 82 77 101 136 135 105 119 113 122 114 135
64 60 76 86 83 72 32 22 26 38 42 49 46 35 38 27 19 41 11 12 34 90 113 110 115 119 157 140 158 153 121 80 122 89 86 69 74 99 109 115 111 98 128 93 112
63 61 52 63 73 92 94 59 44 38 51 56 66 60 42 30 14 13 27 -8 38 97 113 118 116 116 121 142 154 139 104 79 93 91 118 98 99 101 117 98 80 68 114 82 91
53 50 61 69 65 83 98 108 71 39 37 51 71 76 69 27 68 67 37 -30 19 69 119 137 140 134 135 127 114 145 79 100 96 87 94 103 113 101 82 117 123 102 94 84 79
52 49 42 73 77 88 103 107 126 83 40 36 64 82 48 42 37 75 32 -16 19 37 59 101 108 103 105 99 117 81 98 63 75 79 87 94 83 102 75 84 115 119 106 88 85
79 94 82 73 73 79 77 96 114 131 87 48 37 63 43 72 77 91 55 88 67 34 33 59 95 105 114 111 62 70 54 63 66 69 69 74 79 103 64 78 104 86 83 75 74
70 78 85 98 109 83 67 95 107 112 148 71 55 43 32 41 78 108 74 39 60 47 59 43 93 88 129 109 121 86 83 69 59 74 53 70 52 37 67 55 77 78 79 95 95
92 92 104 108 102 120 120 75 87 105 118 101 40 81 69 29 47 71 86 92 76 61 84 57 105 82 145 169 109 104 92 70 60 52 99 70 44 25 41 71 54 66 82 94 93
106 114 110 86 92 93 99 105 77 77 98 68 91 104 74 78 69 42 92 100 85 92 95 100 103 139 171 114 117 124 120 60 57 72 92 72 25 57 97 42 45 59 66 80 95
107 93 76 65 53 24 28 76 60 61 70 80 98 145 181 105 88 112 125 125 175 119 149 140 163 147 164 156 144 82 90 104 62 79 79 56 22 36 28 21 34 45 59 79 99
50 49 42 48 30 60 39 54 84 103 62 140 204 233 232 80 104 104 131 180 179 131 155 108 150 162 105 58 75 159 63 66 58 74 61 34 19 45 46 26 39 32 36 60 91
48 45 32 40 54 80 64 55 40 131 150 45 78 122 123 146 172 106 69 184 198 164 160 187 107 63 46 55 71 96 56 55 70 73 49 65 42 54 49 20 24 28 40 53 63
37 40 30 34 48 53 53 38 44 49 53 22 55 103 112 80 115 119 66 89 107 105 106 91 124 66 90 98 80 71 74 104 164 99 68 76 -2 34 51 28 30 27 39 32 49
37 41 37 44 68 72 56 41 76 36 88 17 73 138 162 160 140 78 51 123 200 101 85 102 80 88 85 84 73 74 53 77 70 111 78 91 38 17 62 39 37 39 61 57 56
32 32 35 55 84 61 37 38 37 27 135 99 56 108 89 192 169 103 72 174 151 163 195 124 59 79 81 67 54 68 54 59 70 85 86 26 52 -42 76 54 22 45 65 91 87
27 34 38 53 82 45 30 40 33 -55 45 95 86 34 72 27 66 113 105 114 135 137 175 138 132 82 91 89 44 113 108 134 116 104 52 87 84 -65 41 58 56 42 55 94 118
23 23 35 63 62 34 42 41 -11 -85 67 56 39 18 2 36 69 130 122 156 203 229 170 104 125 108 113 131 127 105 98 216 175 164 100 91 71 31 63 61 95 63 31 79 124
16 21 47 53 49 38 53 54 -35 26 17 15 32 34 7 31 42 91 91 128 99 85 87 121 123 115 130 123 178 107 109 270 215 154 78 87 27 34 61 88 127 81 47 59 117
47 57 57 43 54 54 44 -13 7 42 46 58 69 60 55 27 79 75 38 61 102 135 180 112 106 88 103 169 100 151 169 239 218 187 105 39 51 65 41 57 31 80 88 74 102
60 54 33 19 44 70 31 15 7 13 8 -20 52 78 35 36 30 12 35 39 46 72 140 145 128 136 159 179 159 126 122 185 228 131 98 17 31 63 44 62 70 93 92 85 95
54 28 36 17 30 38 17 13 8 1 -1 -10 6 70 60 73 38 47 22 51 21 38 82 118 146 100 153 141 115 219 197 204 192 239 162 85 19 128 120 101 58 73 97 94 95
47 35 28 39 28 39 23 5 3 43 -3 0 -1 19 22 44 31 14 35 40 10 41 60 135 158 133 81 189 227 121 129 134 178 172 220 213 156 79 132 81 62 84 129 126 99
45 49 27 35 31 26 12 -8 26 18 26 10 0 -12 14 28 32 21 41 45 50 55 46 112 79 205 163 163 175 178 144 152 174 142 110 155 159 100 119 112 114 83 97 125 127
38 24 28 34 15 -7 -2 15 12 15 26 4 3 -1 20 35 78 15 32 80 46 70 61 -1 74 58 113 135 196 191 182 165 149 163 139 130 141 131 52 55 90 79 94 105 114
42 27 5 1 -1 34 28 11 14 15 5 -9 8 5 5 50 103 58 43 64 74 53 62 78 61 47 68 96 93 137 193 169 160 121 113 89 89 83 63 32 53 76 91 103 118
47 19 23 33 41 53 59 4 24 -7 15 21 57 64 44 22 41 33 0 100 70 65 126 112 -6 31 35 99 80 88 67 117 152 111 71 78 75 57 83 66 77 71 80 94 104
46 40 30 6 18 8 -3 -15 17 5 31 28 40 56 36 32 21 15 14 44 57 63 85 61 51 141 59 88 129 119 76 69 92 110 117 117 94 27 81 57 87 100 86 91 94

GFSSW_con_3kmhel_207.txt.gz
Helicity
60 62 71 82 92 92 93 76 33 23 11 -0 6 32 37 38 30 -1 25 19 14 20 48 64 86 82 83 100 94 164 149 86 65 53 72 113 50 95 168 143 83 114 205 106 137
59 74 67 55 60 79 78 83 93 48 32 27 9 25 37 39 31 53 10 29 31 24 17 55 65 91 117 98 140 120 114 74 102 119 128 44 46 67 119 99 100 90 133 121 108
49 55 72 87 77 71 78 86 92 107 48 31 48 46 45 37 32 10 110 76 40 26 -15 26 34 71 93 111 91 101 94 79 137 133 146 98 77 78 75 69 58 65 105 102 74
55 82 77 60 58 75 87 84 94 116 113 49 26 55 52 34 90 86 94 13 15 1 33 26 55 76 102 118 87 131 48 134 181 62 99 91 91 93 91 114 138 71 77 84 63
55 62 73 85 106 106 78 79 87 91 125 129 52 42 52 33 43 72 32 -12 -8 25 42 42 46 50 79 72 84 64 116 79 75 102 105 140 101 82 93 109 125 140 92 74 71
67 81 88 90 108 102 92 104 79 108 107 128 112 71 32 36 106 57 52 16 7 20 -0 24 65 29 82 71 75 106 63 61 95 40 70 90 92 121 76 90 85 95 65 73 72
61 78 103 113 104 92 107 107 126 111 131 126 123 91 74 56 109 85 81 53 27 9 8 17 31 125 113 92 83 90 79 78 48 54 65 56 89 85 61 91 61 77 73 76 79
103 104 97 102 96 119 113 116 135 109 108 114 103 110 146 69 30 64 106 75 63 45 97 92 73 105 117 134 98 75 58 104 45 66 76 76 80 26 38 61 50 48 86 89 88
97 98 95 75 86 85 92 95 92 82 68 77 126 138 127 97 50 42 48 75 83 77 87 96 97 100 122 151 94 85 109 69 89 23 75 67 64 58 73 62 55 61 76 96 98
59 63 55 46 61 67 74 29 24 9 40 56 75 225 213 147 39 44 81 81 91 110 122 123 156 175 158 117 124 97 77 92 40 63 56 60 49 69 106 122 66 60 80 96 105
51 33 46 42 41 52 53 63 47 69 25 82 122 116 208 -27 93 70 101 128 127 112 180 119 191 189 118 94 44 175 80 77 90 154 29 50 45 48 38 68 70 64 50 93 99
35 31 45 45 39 39 49 57 34 56 46 57 61 60 43 54 85 81 36 181 186 186 117 148 110 69 62 57 88 138 188 92 110 134 79 75 47 58 53 46 49 59 82 74 102
44 34 34 40 44 48 38 22 44 96 103 23 36 52 42 18 104 75 65 46 121 137 132 169 126 67 34 57 86 105 91 113 140 20 32 84 38 56 43 36 50 50 59 66 87
32 26 30 44 52 74 45 81 79 107 86 67 69 57 64 63 117 66 39 78 152 92 111 100 89 48 103 91 75 87 100 136 58 108 87 16 37 40 14 46 59 52 53 70 76
21 20 21 52 68 42 26 36 63 26 91 57 23 70 27 21 69 94 66 81 139 161 154 164 83 113 75 64 91 105 70 70 95 101 139 76 82 68 49 68 59 50 64 84 109
16 19 22 38 47 34 31 46 37 33 39 21 27 9 12 9 -12 28 99 106 187 115 81 136 132 88 78 94 77 126 153 108 108 118 87 89 67 44 46 60 58 43 63 84 102
20 13 16 32 36 57 43 36 37 29 43 11 36 8 -11 -5 -18 27 63 123 233 244 215 151 148 159 96 129 113 110 123 169 156 158 115 138 104 119 200 113 146 109 47 79 104
24 12 33 37 27 42 51 26 31 26 10 4 6 26 -9 -7 -11 9 66 104 103 158 142 220 183 116 129 123 157 99 130 244 195 123 62 103 77 99 86 -0 107 81 138 65 97
27 44 36 40 26 53 52 30 16 25 47 36 63 12 19 10 31 8 45 61 92 100 155 93 119 -5 47 72 83 90 126 229 286 197 149 11 43 137 45 84 95 120 105 48 86
56 37 41 4 20 51 50 18 -4 16 -50 20 56 41 35 13 34 17 19 45 48 65 98 149 117 87 108 213 112 118 57 165 193 174 115 15 -15 58 32 58 71 60 89 80 78
41 39 47 11 25 49 35 12 16 -0 11 7 44 8 35 58 42 32 48 45 15 42 112 138 186 108 130 139 122 193 190 164 150 191 160 138 8 112 133 121 63 64 74 92 76
45 46 39 16 35 45 29 25 7 18 38 6 20 17 88 17 66 17 43 56 37 36 52 125 206 109 50 94 165 72 88 85 186 147 184 243 169 96 86 89 138 82 102 117 107
53 47 30 21 27 26 -11 -14 -3 22 45 11 15 -14 29 29 10 21 23 53 137 64 53 157 178 97 102 103 109 149 97 130 117 202 114 197 220 65 84 72 60 92 118 116 104
52 37 35 22 21 -20 -21 2 4 19 21 18 19 -5 13 16 5 15 5 51 109 60 74 70 123 149 99 84 121 155 143 104 101 136 132 118 185 91 -31 38 97 67 68 84 91
39 37 15 -5 1 4 42 52 51 19 12 7 11 6 22 -9 35 44 36 29 49 70 70 97 85 33 38 53 102 57 113 121 144 103 122 141 94 157 -34 -34 17 55 70 76 86
21 18 42 22 2 7 20 31 -7 33 11 30 14 47 35 -12 5 67 55 51 45 65 132 119 75 63 50 62 25 95 36 53 138 96 76 61 91 79 71 -27 11 34 68 75 80
33 28 25 3 21 2 6 2 17 23 19 8 72 57 54 34 36 60 74 31 54 58 62 85 57 65 29 20 -16 68 76 60 71 106 92 104 89 82 29 -8 32 33 42 62 77

GFSSW_con_3kmhel_213.txt.gz
Helicity
61 61 53 52 65 69 79 72 75 88 83 92 100 68 36 38 43 24 15 56 6 -29 29 79 80 73 73 181 176 149 202 127 138 88 51 155 155 199 171 222 269 172 87 76 209
61 57 55 48 55 63 79 97 110 87 81 88 90 106 78 41 12 23 75 -4 -23 18 45 72 56 79 164 152 194 194 176 131 88 88 60 134 135 151 164 266 320 273 185 145 236
40 36 42 35 55 71 79 77 87 100 111 93 98 100 120 56 3 -7 83 30 2 18 49 60 50 105 148 180 193 187 165 134 112 102 105 192 192 158 151 180 147 189 184 135 154
31 34 27 35 35 58 67 97 99 97 96 114 117 109 132 112 30 66 224 164 60 100 128 53 96 145 179 157 142 193 113 128 93 159 180 197 247 179 171 113 97 105 135 167 160
59 64 62 70 71 73 81 95 85 93 109 123 130 124 143 145 133 50 115 19 64 136 74 45 72 106 163 123 119 96 140 75 54 79 116 194 202 238 125 136 99 190 176 155 181
67 75 86 89 87 78 72 70 71 70 79 88 108 123 168 48 126 57 104 76 88 51 35 42 163 88 140 127 93 92 88 93 120 147 91 123 149 192 153 139 121 186 188 162 181
73 88 83 75 79 76 72 64 61 48 49 56 63 102 137 190 160 142 192 171 66 92 35 -30 21 137 112 104 46 96 131 94 105 149 86 104 121 151 176 165 138 170 175 146 128
86 93 91 74 76 71 63 59 52 30 29 31 39 98 125 154 61 82 160 142 108 94 38 32 84 117 167 193 197 166 120 145 130 143 142 96 56 109 101 160 153 170 180 141 127
90 85 77 69 70 60 50 40 13 -1 10 7 71 97 89 60 -25 59 82 88 101 95 86 71 126 139 158 165 185 208 208 151 159 124 140 129 52 87 80 112 162 180 183 169 135
84 70 57 47 33 26 28 26 12 -18 55 47 67 150 146 73 85 31 103 101 98 128 116 101 158 214 202 244 202 235 180 200 140 153 126 142 132 88 121 86 149 176 191 173 159
67 54 39 20 14 19 48 79 60 75 100 76 58 26 66 28 81 101 96 104 119 141 186 215 321 194 201 231 265 180 208 123 86 63 107 86 105 125 87 168 162 188 194 188 174
43 27 26 14 18 17 62 76 54 89 96 33 52 43 73 108 48 7 17 99 153 169 180 237 157 150 112 293 251 174 183 159 158 153 108 160 158 150 99 83 136 136 172 178 199
22 24 25 23 16 58 66 53 50 61 101 123 100 61 71 55 51 -36 2 126 124 168 198 227 160 153 153 144 130 118 108 145 165 227 275 249 218 140 119 105 104 141 122 214 251
28 33 28 42 64 60 50 24 67 72 86 32 -2 -9 5 62 73 -14 36 147 138 127 146 213 157 151 189 206 159 123 105 101 175 148 201 177 121 106 86 130 145 98 158 194 241
37 38 29 43 119 76 49 30 47 57 69 9 24 -31 4 65 24 93 78 39 74 157 185 204 191 199 165 161 197 225 138 82 126 117 141 198 128 30 87 107 129 156 147 164 258
38 29 27 69 68 62 34 24 61 64 19 19 16 -12 -10 -12 -4 50 74 90 112 159 120 167 227 164 107 133 139 174 197 212 148 156 153 162 125 -22 93 79 113 125 167 133 261
28 19 32 65 63 35 33 50 69 61 11 -17 -40 11 22 -9 32 74 59 -38 51 101 228 136 182 222 142 115 148 194 257 287 224 234 162 52 87 72 29 105 104 125 214 192 265
30 10 63 61 34 42 56 61 101 17 -14 31 -11 62 9 12 41 55 51 59 8 141 256 176 197 180 179 181 233 217 235 283 288 323 295 211 105 55 12 -16 134 131 164 249 305
30 62 64 38 32 49 49 53 50 -1 -3 3 68 -1 0 12 6 38 18 8 -46 15 379 233 194 210 191 201 192 285 195 88 270 271 185 156 86 100 39 35 10 75 164 213 271
81 73 70 26 36 52 61 46 40 25 4 0 4 2 18 16 84 34 18 6 -5 25 133 170 126 189 166 235 260 169 240 223 163 190 180 106 84 -1 88 65 90 99 116 173 259
95 89 56 25 70 63 56 35 42 34 12 22 23 19 36 8 71 59 28 37 28 30 65 -3 147 221 114 144 191 246 230 265 184 171 155 97 105 53 11 86 68 84 139 208 302
75 73 50 34 46 37 34 67 42 34 8 -1 -9 1 27 25 50 47 37 55 50 75 79 91 49 240 251 366 162 158 194 330 270 279 237 243 238 89 63 82 50 75 93 205 263
68 39 32 55 1 15 49 74 59 26 3 16 15 3 1 24 33 46 52 23 26 52 73 70 88 113 238 342 344 192 188 185 195 181 153 190 247 119 172 170 104 68 124 159 255
58 44 32 48 50 39 43 45 35 63 21 11 24 20 6 13 14 35 34 29 31 35 81 78 141 156 69 95 146 174 167 186 161 154 175 159 171 181 71 123 151 120 104 170 271
50 59 49 36 39 34 57 57 46 18 14 -2 7 21 16 23 51 32 26 4 63 38 78 147 85 154 210 142 140 65 87 147 151 169 120 127 88 33 30 33 37 20 91 146 228
61 49 42 54 53 66 34 15 40 27 58 -8 13 29 14 5 1 35 15 13 5 39 58 104 154 150 174 185 188 138 84 66 104 120 111 86 60 86 -2 5 18 -19 47 122 162
39 44 42 20 36 44 35 26 35 -12 40 -13 15 0 7 9 50 27 -26 176 31 -10 -5 31 152 161 127 85 105 103 70 73 89 100 100 109 59 26 38 -53 -6 -8 -17 75 143

GFSSW_con_3kmhel_219.txt.gz
Helicity
67 58 52 52 48 42 68 75 85 93 96 82 86 102 104 72 61 27 42 81 33 43 41 132 133 128 146 187 218 222 276 189 198 150 83 29 88 118 109 143 180 116 68 52 202
45 51 41 60 61 81 87 80 74 71 96 89 77 96 98 89 35 7 67 60 37 22 52 69 103 131 196 176 234 288 269 159 156 155 72 112 125 105 148 235 213 205 169 160 198
58 83 82 47 40 43 62 65 63 65 69 80 89 93 101 92 -26 -50 2 47 74 18 65 76 115 123 181 195 221 257 180 208 156 148 87 67 119 168 130 218 189 150 137 166 139
42 66 72 73 87 82 84 75 61 56 53 53 68 96 117 130 121 102 105 401 298 138 87 97 114 158 187 202 198 190 120 125 157 169 136 72 156 198 146 145 91 189 168 129 82
69 94 85 89 81 86 86 72 60 47 44 52 64 90 120 117 92 40 119 87 266 226 75 119 105 124 116 150 200 129 165 113 159 182 127 96 118 171 169 134 134 186 132 76 74
88 88 82 86 73 74 60 53 39 30 28 32 44 29 123 -4 109 61 8 -87 71 199 96 104 169 142 171 170 142 123 62 96 110 152 94 95 106 112 163 112 154 158 94 80 90
94 96 97 82 69 55 50 31 16 11 5 4 6 35 120 106 102 49 155 87 42 121 154 92 81 153 169 132 136 150 91 44 103 85 113 66 123 121 149 144 121 113 123 93 120
84 90 85 69 43 44 33 18 2 -2 -13 -10 -3 48 129 105 50 50 100 144 91 115 124 110 90 94 150 211 165 108 147 128 88 121 148 148 53 104 129 172 154 140 152 133 116
79 73 64 44 37 41 28 11 2 -14 -21 13 46 105 109 40 48 23 168 147 124 188 97 54 105 136 139 163 166 160 148 141 174 131 224 203 41 74 111 145 167 141 146 122 142
69 65 49 36 39 35 18 11 -9 7 41 29 70 125 48 81 13 17 49 130 160 187 205 130 166 164 169 182 142 186 186 149 154 174 171 164 120 97 124 142 126 132 127 142 143
58 45 45 34 21 19 54 66 37 34 93 122 84 113 11 51 37 4 42 55 116 207 216 144 180 163 107 152 167 188 174 226 149 177 235 162 120 102 155 161 132 136 126 126 142
43 40 44 27 6 11 84 84 72 84 76 121 88 58 8 1 60 40 72 38 108 207 212 292 171 47 112 161 162 149 156 186 185 189 173 152 99 119 118 147 129 113 146 153 163
41 39 34 7 4 76 71 64 53 69 71 35 28 10 18 78 64 70 -11 48 88 168 224 236 170 98 99 103 123 115 90 193 202 236 257 166 124 136 104 123 146 112 146 193 181
26 23 21 31 90 50 43 62 59 82 95 32 14 11 13 66 49 18 24 87 53 111 117 201 73 181 123 93 137 134 102 261 176 210 239 222 125 106 83 109 140 150 152 157 179
31 25 28 44 96 70 65 54 54 78 154 33 18 52 7 53 33 40 103 145 61 100 160 165 120 -0 174 45 112 143 156 138 237 321 325 275 173 87 113 113 110 126 184 165 157
19 21 23 81 69 76 58 56 80 128 111 22 36 37 11 2 54 35 87 99 112 -37 90 139 115 -121 69 127 107 186 125 169 236 288 239 248 224 94 139 118 146 186 143 168 164
21 19 64 74 51 56 53 74 123 160 47 7 49 57 23 71 13 22 29 32 33 -58 -49 70 92 -126 -156 98 153 206 327 274 207 387 297 275 224 138 81 81 108 105 121 142 156
21 38 50 55 37 42 63 84 158 54 27 71 74 44 24 12 3 34 -28 -10 58 42 -86 150 188 36 -38 74 130 203 284 231 165 229 281 241 173 151 93 66 115 107 119 133 143
45 53 59 28 29 54 70 108 68 60 49 43 46 34 69 37 26 56 -13 -20 10 17 -23 107 105 187 88 100 112 92 240 363 395 429 349 285 230 194 124 131 61 122 119 80 90
66 61 32 15 31 56 65 33 52 96 60 48 20 35 54 62 96 105 -15 -6 -72 -27 -14 -10 223 273 296 220 191 70 178 269 357 245 256 179 107 87 101 92 163 74 50 93 87
80 81 32 7 43 55 74 23 37 86 49 42 50 51 47 60 185 141 79 -4 54 -24 -3 -4 25 281 259 261 202 241 204 194 195 211 216 119 78 28 25 74 26 121 86 58 109
70 98 37 35 89 61 62 53 56 71 64 25 36 22 18 90 58 69 121 94 76 41 -8 -7 37 259 255 232 220 228 171 198 191 222 186 132 148 88 86 120 144 70 84 108 63
75 52 34 56 121 66 62 37 48 60 51 16 12 1 10 20 26 40 115 48 55 24 3 -3 70 426 313 275 267 224 218 217 200 222 245 285 216 164 105 101 114 101 167 160 108
74 73 43 39 17 59 48 31 48 54 45 36 11 -18 3 11 20 31 86 36 52 57 70 12 33 183 182 160 215 213 237 172 172 253 198 159 149 222 265 166 129 122 130 181 150
72 64 58 76 62 72 51 51 29 12 43 28 16 9 29 20 31 30 38 75 -3 62 34 37 64 113 128 190 143 197 185 209 178 155 143 162 116 133 220 227 210 103 93 96 153
91 100 54 53 40 51 40 44 40 63 40 6 26 63 52 25 23 58 87 64 4 102 42 29 75 78 95 94 89 114 118 138 200 195 166 149 83 -2 -29 17 74 99 64 54 114
47 49 70 58 64 72 47 28 51 51 26 42 8 44 33 25 22 73 67 53 74 103 68 47 61 75 103 107 124 133 96 72 131 110 115 147 69 -61 -36 -20 6 -22 -15 3 72